Tracking 29892 objects as of 21-Nov-2024
HD Live streaming from Space Station
objects crossing your sky now

STARLINK-3718

Track STARLINK-3718 now!
10-day predictions
STARLINK-3718 is classified as:


NORAD ID: 52132
Int'l Code: 2022-029AW
Perigee: 546.0 km
Apogee: 547.7 km
Inclination: 53.2 °
Period: 95.4 minutes
Semi major axis: 6917 km
RCS: Unknown
Launch date: March 19, 2022
Source: United States (US)
Launch site: AIR FORCE EASTERN TEST RANGE (AFETR)
Your satellite tracking list
Your tracking list is empty




NASA's NSSDC Master Catalog

Two Line Element Set (TLE):
1 52132U 22029AW  24325.20484829  .00004640  00000-0  30936-3 0  9999
2 52132  53.2166  39.1598 0001232 115.6437 244.4682 15.08851080149301
Source of the keplerian elements: AFSPC